Location: ??????
(56.0120°N, 39.1740°E)
Time: 21:41:22
(UTC+00:00)

Cosmos 1400 Rocket - Pass Details

Date: 14 April 2026
Orbit: 474 x 505 km, 81.1° (Epoch: 13 May)

Event Time Altitude Azimuth Distance (km) Brightness Sun altitude
Exits shadow 18:18:48 22° 163° (SSE) 1,077 3.8 -14.1°
Maximum altitude 18:20:47 48° 99° (E) 631 2.8 -14.3°
Drops below altitude 10° 18:24:17 10° 24° (NNE) 1,660 5.5 -14.6°
Sets 18:26:26 0° 19° (NNE) 2,547 6.6 -14.8°
